Wind_Speed
20 19 18 17 16 17 16 15 15 15 15 15 15 14 15 15 16 17 20 14 9 8 6 4 2 1 9 6 9 3 3 3 3 2 6 31 14 20 20 6 12 20 14 8 33
21 20 20 19 18 18 17 16 15 14 14 13 13 13 13 14 15 17 11 11 13 13 10 3 3 5 4 3 5 4 3 5 5 5 7 21 21 31 7 5 8 13 10 19 37
22 20 20 20 20 19 18 18 17 16 14 12 11 11 10 10 12 1 5 2 9 13 11 6 3 6 3 3 4 5 5 4 11 21 19 17 16 24 5 3 11 21 25 34 43
23 21 21 21 21 20 18 18 17 16 14 12 10 9 7 5 1 4 5 6 6 8 8 4 7 7 2 3 3 2 9 9 9 14 9 5 10 11 11 11 10 22 32 40 46
24 23 22 22 20 19 19 17 16 15 14 11 9 7 5 3 6 6 3 6 3 1 2 7 9 5 2 4 9 4 4 10 12 18 12 16 10 10 19 18 9 17 37 43 47
26 25 24 23 22 20 17 16 16 16 13 8 6 4 3 2 3 6 4 5 5 5 3 8 4 2 5 4 1 7 11 16 26 30 26 5 13 10 30 22 9 23 42 45 46
27 27 26 25 21 18 15 17 15 11 7 4 2 3 6 4 4 6 3 1 4 7 8 7 5 2 6 5 5 5 7 9 16 7 4 5 8 6 23 24 14 31 42 39 44
29 28 28 26 21 16 17 17 6 8 6 2 2 3 4 2 4 7 9 5 3 5 2 3 4 6 3 6 7 4 3 5 6 2 5 2 9 12 28 21 8 28 32 37 44
31 30 29 26 20 15 19 9 3 6 5 3 3 4 2 2 2 1 4 3 2 6 6 8 9 3 3 3 6 7 2 5 9 6 3 1 11 13 28 18 5 22 29 34 36
31 31 29 25 17 17 18 5 5 3 5 5 6 4 0 4 4 5 4 5 6 7 4 4 3 1 3 4 4 3 2 5 7 9 11 13 8 9 20 18 2 14 26 31 34
31 31 30 25 14 16 15 2 7 2 16 6 5 5 13 5 9 6 2 5 6 4 1 3 4 7 11 8 7 4 4 7 14 17 2 7 10 7 15 27 26 29 12 28 36
30 31 30 26 10 8 14 11 12 9 11 17 16 19 15 14 6 3 6 5 3 4 3 5 5 12 4 5 7 8 7 13 10 12 6 8 7 6 15 9 17 18 21 13 24
29 31 31 26 5 5 8 10 8 10 3 10 3 5 3 3 5 6 10 5 5 3 4 6 10 6 4 7 4 4 5 5 9 3 2 2 9 6 4 16 17 21 17 21 15
28 31 32 29 7 12 5 11 7 6 4 5 3 2 4 4 4 8 9 7 3 6 5 5 4 4 3 1 3 1 4 6 4 5 2 3 4 6 8 9 15 21 24 24 27
27 30 31 27 17 11 9 11 5 3 3 2 2 1 2 4 4 2 7 11 4 3 5 6 5 6 8 6 5 4 5 5 2 2 3 5 4 5 6 9 13 16 21 24 25
25 29 29 26 13 10 11 8 3 4 1 3 1 3 2 3 4 3 6 3 1 1 1 5 2 4 2 4 1 5 3 5 5 3 4 5 4 4 2 3 7 11 17 21 19
25 27 27 16 8 9 11 4 5 3 4 6 3 4 2 4 4 5 3 2 2 2 5 6 3 4 5 6 4 9 7 5 5 5 4 2 2 6 3 1 4 9 9 11 12
25 26 17 5 7 9 10 4 3 2 3 3 3 4 4 6 4 6 3 3 5 4 3 2 5 5 6 1 3 3 4 4 3 2 5 5 2 5 6 6 4 10 9 7 9
25 23 8 4 8 11 5 4 3 2 3 5 4 6 6 5 4 6 4 2 2 2 4 3 4 4 3 4 3 6 2 3 3 2 2 3 5 4 3 3 3 10 12 12 10
26 22 5 3 6 11 5 3 3 3 6 3 3 2 5 6 6 6 4 3 1 2 5 5 1 1 5 5 5 1 3 4 4 3 3 5 5 5 4 6 5 7 18 15 11
21 11 4 3 7 5 2 4 5 15 9 3 4 1 2 3 2 3 4 2 2 2 2 4 3 5 3 3 2 5 4 4 3 4 3 3 5 3 3 4 5 8 14 14 13
11 4 2 3 2 2 0 2 9 10 7 3 3 2 2 1 2 3 1 3 12 2 1 2 5 1 4 5 5 5 2 4 4 6 4 2 6 2 3 6 7 12 15 12 11
17 8 7 3 2 3 6 5 3 5 5 5 3 1 2 0 2 2 4 8 10 5 2 2 2 3 8 6 5 1 3 3 2 3 5 3 6 2 5 7 9 10 11 8 11
7 3 4 6 5 2 4 4 6 9 2 8 4 3 2 3 6 4 7 4 9 5 10 5 3 6 6 6 2 6 6 6 3 3 3 6 6 5 6 7 11 12 11 10 10
3 2 2 3 4 4 2 3 5 8 10 8 5 4 1 4 3 3 3 6 6 4 4 4 4 6 6 6 5 7 9 8 5 6 5 5 6 7 6 7 11 11 11 14 12
4 3 5 6 6 5 4 5 5 5 3 7 1 1 3 5 5 2 0 1 5 3 3 2 3 3 4 8 7 5 11 8 7 5 7 6 8 6 7 11 14 13 13 13 14
4 3 3 4 3 2 2 3 3 8 6 5 3 2 1 6 10 8 13 9 9 7 3 5 5 2 5 3 6 6 6 5 3 4 4 5 6 4 8 8 13 12 13 14 13
Wind_Direction
351 348 346 343 339 337 334 330 324 317 312 306 299 294 292 290 287 283 276 285 273 255 229 238 308 225 185 224 202 190 39 264 277 306 272 302 301 292 298 247 168 194 268 256 171
352 349 346 345 342 338 337 332 326 320 313 307 302 298 296 296 296 286 292 260 243 234 223 253 290 195 196 230 190 142 152 241 210 224 264 279 290 289 299 257 198 178 223 170 169
355 350 348 345 342 339 337 332 326 322 316 312 305 302 299 303 311 64 55 305 228 208 217 249 218 175 233 257 209 189 212 224 264 274 271 270 291 299 255 216 206 191 182 173 175
358 353 349 346 342 338 335 330 324 321 318 316 308 304 299 300 194 123 48 37 106 178 214 203 178 166 206 241 245 245 253 264 289 308 297 253 287 291 244 250 264 231 204 183 184
2 357 353 347 341 337 333 328 323 320 317 311 298 295 294 261 256 220 21 27 353 176 194 183 171 170 221 282 311 224 286 295 292 309 284 292 252 262 290 314 285 210 190 191 193
2 358 353 347 342 338 336 331 324 320 313 301 281 266 264 269 104 143 122 41 8 273 250 181 182 154 282 262 215 310 300 304 321 306 302 291 305 329 306 326 263 201 195 195 195
2 359 355 349 345 343 339 331 328 333 332 321 268 266 254 228 137 177 180 303 329 341 235 235 244 278 323 304 336 314 327 328 289 275 280 335 324 283 316 325 273 205 193 188 194
1 360 357 351 349 351 340 334 343 358 12 22 34 314 252 194 243 219 221 247 276 324 15 212 237 277 247 299 343 328 50 355 280 273 312 69 283 285 319 340 320 197 195 191 199
359 359 359 354 352 356 345 347 332 358 28 23 347 348 277 250 236 346 236 230 243 287 292 277 300 276 315 57 359 3 264 305 315 313 17 40 288 291 337 346 325 188 193 200 202
357 358 359 356 353 360 353 10 346 344 357 302 283 325 90 338 317 304 261 236 259 267 292 258 215 64 43 78 243 245 269 267 251 299 341 316 265 297 336 345 67 223 204 204 205
354 356 358 358 358 4 10 27 2 340 320 259 273 265 286 287 301 276 211 214 218 195 145 27 80 236 245 198 216 216 217 256 281 282 354 279 293 298 348 29 35 29 257 213 214
353 352 356 358 360 22 31 65 27 327 308 302 271 260 266 277 301 279 224 201 163 191 133 18 250 244 237 230 215 220 243 270 288 276 156 269 288 346 28 45 41 42 14 356 249
350 348 350 356 331 2 19 33 1 343 293 297 262 263 261 234 228 266 210 205 190 212 164 163 244 328 274 290 252 233 192 247 222 288 235 30 327 15 356 22 25 29 23 15 332
347 344 345 352 348 330 316 336 309 311 42 281 273 250 217 200 258 253 225 212 173 200 190 219 289 273 348 175 166 28 227 262 278 55 263 71 285 335 344 345 17 6 7 5 8
342 342 341 346 336 333 316 333 300 299 40 196 232 212 213 201 326 282 225 210 223 225 85 263 3 16 32 335 353 290 341 313 334 56 79 352 78 276 3 352 352 346 354 16 32
337 339 336 336 337 331 324 329 307 39 337 345 55 351 0 248 247 258 196 218 91 195 306 241 283 80 290 323 331 284 329 43 46 69 34 291 101 289 317 298 310 326 347 10 29
333 336 333 333 339 341 337 326 38 115 339 327 328 350 314 273 289 189 185 66 201 349 340 351 12 354 19 2 330 35 41 355 8 11 239 309 49 237 247 75 304 314 325 8 22
332 335 336 16 357 346 344 51 85 330 318 318 329 333 49 351 6 331 94 43 35 69 70 71 333 21 338 114 252 343 114 143 281 228 263 315 229 267 208 129 331 329 338 331 7
334 340 359 13 4 348 343 67 175 300 289 330 347 60 339 347 25 35 49 106 48 30 107 77 303 327 8 342 68 312 18 210 150 34 60 284 302 337 96 208 344 299 339 349 0
336 340 45 345 326 334 63 233 240 250 320 71 62 63 16 327 28 25 25 314 67 45 142 196 318 279 299 37 15 125 253 19 11 346 307 297 301 238 261 285 324 327 340 340 330
337 333 336 308 295 336 107 247 288 316 304 181 195 259 11 11 298 356 323 338 46 306 26 116 109 290 16 25 304 353 19 30 119 145 198 264 260 274 289 281 309 314 334 321 322
345 340 333 295 335 24 1 227 311 324 357 327 108 111 126 142 328 331 26 282 334 206 98 51 129 130 231 301 273 177 96 121 110 292 236 188 269 231 328 321 310 307 320 323 325
335 293 6 275 84 335 309 300 291 339 324 10 16 44 179 200 345 219 1 9 29 63 108 187 17 24 351 354 347 211 264 158 121 83 227 186 269 183 349 327 335 319 330 314 305
332 343 343 56 68 128 353 296 327 317 282 354 305 11 45 40 17 357 354 14 8 61 48 95 112 150 192 216 225 305 299 307 154 165 256 229 280 270 315 325 322 329 338 320 307
305 292 11 316 332 352 306 333 345 1 343 331 348 50 130 50 34 33 349 333 334 42 44 86 206 186 231 239 221 233 263 293 240 220 191 244 231 265 279 283 293 313 326 329 330
290 342 344 302 310 341 352 19 352 330 255 317 183 113 96 134 158 268 171 185 252 311 85 24 264 182 255 264 258 263 286 254 241 236 262 274 285 219 273 290 299 327 330 324 318
245 270 294 293 349 25 172 348 325 350 297 338 284 312 188 211 191 248 242 219 226 223 230 175 164 126 259 282 341 319 250 212 248 220 203 239 239 320 305 277 288 305 310 304 303
Height
1520 1517 1514 1511 1508 1505 1503 1500 1497 1495 1493 1491 1490 1489 1488 1487 1486 1485 1483 1486 1487 1487 1488 1490 1491 1491 1493 1493 1494 1494 1502 1507 1497 1494 1482 1465 1471 1471 1472 1470 1469 1470 1471 1471 1475
1519 1515 1512 1508 1505 1502 1500 1497 1495 1493 1490 1489 1487 1486 1485 1484 1483 1480 1482 1480 1482 1484 1486 1488 1489 1490 1491 1491 1491 1492 1505 1496 1486 1483 1481 1474 1472 1466 1470 1468 1468 1469 1469 1470 1472
1518 1514 1510 1507 1503 1500 1497 1494 1492 1489 1487 1486 1485 1484 1483 1482 1481 1478 1478 1478 1478 1481 1485 1487 1488 1489 1490 1489 1488 1488 1494 1485 1482 1479 1478 1475 1470 1466 1464 1467 1464 1461 1464 1466 1467
1517 1512 1509 1505 1501 1498 1495 1491 1489 1486 1484 1483 1482 1481 1481 1482 1484 1478 1478 1478 1478 1481 1483 1485 1487 1489 1489 1489 1486 1488 1483 1482 1478 1478 1476 1474 1469 1464 1461 1461 1459 1455 1454 1458 1462
1516 1512 1508 1504 1500 1496 1492 1489 1486 1483 1482 1481 1480 1480 1480 1481 1477 1477 1478 1478 1479 1481 1482 1484 1486 1487 1488 1486 1484 1484 1480 1478 1477 1474 1472 1469 1465 1462 1451 1453 1451 1452 1455 1454 1456
1515 1511 1506 1502 1497 1494 1490 1487 1484 1481 1479 1478 1478 1479 1479 1480 1476 1477 1478 1479 1479 1480 1481 1483 1484 1486 1486 1485 1485 1481 1478 1473 1470 1467 1465 1463 1459 1456 1448 1448 1450 1448 1448 1450 1453
1514 1509 1505 1500 1496 1492 1488 1485 1482 1479 1477 1477 1477 1477 1478 1477 1476 1477 1478 1479 1479 1479 1480 1482 1483 1485 1485 1483 1481 1480 1481 1474 1466 1464 1462 1460 1463 1458 1448 1446 1443 1443 1445 1451 1455
1513 1509 1504 1499 1494 1491 1487 1483 1481 1479 1478 1477 1477 1477 1475 1475 1475 1476 1477 1478 1478 1478 1479 1481 1483 1483 1483 1481 1481 1482 1483 1493 1466 1464 1465 1464 1474 1452 1447 1445 1440 1443 1448 1450 1450
1513 1508 1503 1498 1493 1490 1486 1482 1481 1479 1478 1478 1478 1477 1475 1475 1474 1475 1475 1476 1478 1478 1479 1481 1482 1482 1482 1487 1496 1495 1501 1492 1479 1462 1467 1467 1470 1449 1445 1447 1444 1442 1446 1447 1452
1513 1508 1503 1498 1493 1490 1485 1482 1481 1480 1479 1478 1478 1480 1475 1475 1474 1474 1474 1475 1477 1479 1479 1479 1481 1484 1488 1496 1516 1499 1498 1493 1492 1470 1465 1468 1467 1452 1446 1445 1448 1444 1444 1446 1449
1513 1508 1504 1498 1495 1491 1487 1483 1485 1482 1479 1478 1477 1476 1474 1474 1473 1473 1473 1475 1477 1478 1482 1480 1488 1495 1485 1485 1483 1487 1492 1494 1477 1465 1472 1470 1464 1454 1452 1451 1452 1451 1447 1445 1445
1513 1508 1504 1499 1496 1494 1491 1489 1494 1493 1482 1474 1473 1472 1471 1474 1474 1471 1473 1475 1475 1481 1479 1487 1493 1475 1475 1477 1481 1484 1491 1488 1477 1464 1473 1469 1462 1456 1460 1461 1459 1459 1450 1445 1443
1513 1508 1503 1500 1496 1495 1493 1493 1493 1491 1489 1473 1471 1470 1471 1472 1471 1469 1471 1472 1473 1478 1480 1490 1477 1470 1472 1474 1478 1480 1488 1483 1481 1467 1463 1464 1471 1468 1463 1461 1458 1455 1454 1447 1439
1513 1507 1503 1498 1497 1495 1494 1493 1492 1491 1498 1477 1471 1470 1470 1470 1470 1467 1468 1472 1472 1477 1478 1482 1473 1472 1472 1475 1473 1481 1470 1470 1467 1476 1494 1470 1503 1476 1469 1463 1455 1455 1453 1449 1436
1512 1507 1502 1497 1496 1494 1494 1491 1490 1491 1514 1473 1470 1469 1468 1470 1469 1466 1466 1469 1471 1471 1474 1481 1473 1474 1476 1476 1470 1476 1465 1467 1464 1475 1482 1479 1496 1485 1474 1471 1464 1458 1454 1449 1442
1511 1506 1500 1497 1494 1493 1490 1490 1490 1502 1506 1476 1470 1470 1470 1468 1467 1465 1466 1468 1468 1470 1471 1472 1469 1471 1473 1468 1469 1468 1468 1474 1481 1489 1508 1486 1492 1496 1482 1475 1470 1462 1457 1451 1444
1509 1505 1499 1495 1494 1491 1490 1490 1504 1510 1479 1485 1479 1474 1474 1472 1467 1465 1466 1471 1481 1485 1489 1478 1476 1472 1471 1475 1469 1472 1485 1513 1511 1515 1514 1483 1493 1487 1470 1469 1468 1465 1460 1456 1452
1506 1502 1497 1496 1494 1492 1490 1492 1504 1489 1486 1477 1477 1475 1479 1475 1469 1468 1469 1483 1476 1480 1496 1498 1500 1479 1475 1477 1480 1481 1489 1514 1518 1524 1510 1487 1493 1482 1466 1468 1466 1462 1459 1457 1454
1504 1500 1496 1496 1495 1492 1491 1508 1499 1490 1483 1483 1479 1488 1487 1478 1475 1474 1478 1483 1479 1478 1493 1501 1497 1479 1475 1473 1475 1485 1496 1486 1502 1508 1515 1500 1481 1467 1468 1466 1467 1464 1460 1456 1449
1503 1499 1497 1497 1495 1493 1495 1504 1495 1486 1482 1481 1491 1486 1493 1487 1487 1486 1483 1479 1479 1476 1476 1489 1503 1486 1480 1477 1478 1480 1482 1500 1510 1517 1515 1506 1496 1492 1472 1471 1468 1465 1460 1456 1451
1504 1500 1498 1497 1497 1495 1506 1503 1492 1485 1483 1482 1485 1488 1489 1491 1489 1488 1487 1479 1477 1478 1478 1484 1495 1495 1485 1490 1493 1494 1497 1499 1507 1515 1522 1526 1507 1476 1472 1467 1465 1463 1460 1456 1452
1506 1505 1499 1498 1500 1502 1504 1497 1491 1486 1482 1480 1480 1482 1486 1488 1489 1486 1487 1481 1476 1475 1481 1485 1501 1508 1496 1487 1486 1488 1490 1502 1519 1516 1514 1514 1503 1472 1471 1468 1465 1463 1461 1456 1448
1507 1503 1498 1497 1507 1508 1500 1496 1492 1489 1485 1484 1482 1481 1482 1485 1491 1486 1484 1481 1476 1478 1483 1483 1502 1518 1510 1498 1490 1488 1488 1489 1501 1511 1509 1515 1498 1471 1469 1467 1464 1463 1459 1456 1450
1510 1508 1500 1499 1502 1503 1504 1499 1496 1489 1487 1486 1483 1480 1484 1487 1490 1492 1490 1483 1481 1481 1481 1480 1501 1505 1520 1506 1496 1497 1488 1485 1493 1512 1502 1500 1485 1471 1467 1466 1463 1461 1460 1456 1451
1512 1509 1509 1510 1504 1504 1503 1500 1498 1499 1489 1486 1486 1487 1487 1495 1495 1496 1493 1489 1483 1483 1484 1486 1499 1499 1496 1494 1492 1490 1487 1482 1485 1487 1493 1481 1481 1470 1466 1464 1460 1459 1458 1455 1450
1512 1511 1509 1507 1504 1504 1503 1505 1503 1499 1495 1491 1488 1487 1485 1492 1492 1495 1493 1492 1491 1485 1486 1490 1498 1494 1495 1486 1484 1484 1478 1476 1476 1475 1478 1475 1475 1463 1462 1460 1457 1455 1454 1453 1448
1511 1511 1510 1506 1505 1506 1506 1504 1502 1501 1493 1491 1490 1490 1489 1486 1484 1484 1483 1483 1483 1485 1486 1490 1496 1501 1503 1488 1487 1491 1476 1472 1472 1472 1474 1480 1469 1463 1461 1458 1455 1452 1450 1448 1445